Regional Weather Roundup
Issued by NWS

Home | Current Version | Previous Version | Text Only | Print | Product List | Glossary Off
Versions: 1 2 3 4 5 6 7 8 9 10 11 12 13 14 15 16 17 18 19 20 21 22 23 24 25 26 27 28 29 30 31 32 33 34 35 36 37 38 39 40 41 42 43 44 45 46 47 48 49 50

000
ASUS43 KLSX 050210
RWRMO

WEATHER SUMMARY FOR MISSOURI
NATIONAL WEATHER SERVICE SPRINGFIELD MO
900 PM CDT FRI SEP 04 2015

NOTE: "FAIR" INDICATES FEW OR NO CLOUDS BELOW 12,000 FEET WITH NO
       SIGNIFICANT WEATHER AND/OR OBSTRUCTIONS TO VISIBILITY.
       CURRENT SKY AND/OR WEATHER CONDITIONS ARE NOT AVAILABLE FOR
       CHILLICOTHE AND FARMINGTON.

MOZ001>031-035>038-043-044-053-054-050300-
...NORTHERN AND WESTERN MISSOURI...

CITY           SKY/WX    TMP DP  RH WIND       PRES   REMARKS
KANSAS CTY INT CLEAR     76  67  73 S8        29.96R
KANSAS C DTWN  CLEAR     85  67  54 S9        29.94S
LEE`S SUMMIT   CLEAR     82  66  58 S6        29.98R
ST JOSEPH      CLEAR     79  68  69 S8        29.94R
CHILLICOTHE      N/A     78  70  76 CALM      29.97R
KIRKSVILLE     CLEAR     76  69  79 SE5       30.00R

$$
MOZ066>068-077>081-088>096-101>105-050300-
...SOUTHWEST MISSOURI...

CITY           SKY/WX    TMP DP  RH WIND       PRES   REMARKS
SPRINGFIELD    CLEAR     78  68  71 SE6       30.02R
JOPLIN         CLEAR     79  70  74 SE5       29.99R

$$
MOZ032>034-039>042-045>050-055>058-069>072-050300-
...CENTRAL MISSOURI...

CITY           SKY/WX    TMP DP  RH WIND       PRES   REMARKS
COLUMBIA       CLEAR     81  70  69 S6        30.01R
JEFFERSON CITY CLEAR     80  70  71 CALM      29.99R
ROLLA          CLEAR     76  70  82 S5        30.02R
SEDALIA        CLEAR     79  69  71 SE6       30.00R
WHITEMAN AFB   CLEAR     80  69  69 SE5       29.97R
WARRENSBURG    CLEAR     79  68  69 SE3       29.98R
OSAGE BEACH    CLEAR     81  66  61 SE5       30.02R

$$
MOZ051-052-059>065-050300-
...EAST CENTRAL MISSOURI...

CITY           SKY/WX    TMP DP  RH WIND       PRES   REMARKS
ST LOUIS INTL  FAIR      88  68  51 S6        30.01R HX  91
SPIRIT OF STL  PTCLDY    76  74  93 CALM      29.99R
ST CHARLES     CLEAR     79  75  87 CALM      29.99R

$$
MOZ072>076-082>087-097>100-106>115-050300-
...SOUTH CENTRAL AND SOUTHEAST MISSOURI...

CITY           SKY/WX    TMP DP  RH WIND       PRES   REMARKS
CAPE GIRARDEAU CLEAR     76  72  87 E3        30.00R
FARMINGTON     PTCLDY    75  72  88 CALM      30.06R
POPLAR BLUFF   CLEAR     76  73  91 CALM      30.00R
WEST PLAINS    CLEAR     77  69  76 CALM      30.06R

$$


USA.gov is the U.S. government's official web portal to all federal, state and local government web resources and services.